Tracking 19146 objects as of 24-Apr-2018
HD Live streaming from Space Station
objects crossing your sky now

FENGYUN 1C DEB

Track FENGYUN 1C DEB now!
10-day predictions


NORAD ID: 38135
Int'l Code: 1999-025EQG
Perigee: 664.8 km
Apogee: 1,008.0 km
Inclination: 99.0 °
Period: 101.5 minutes
Semi major axis: 7207 km
RCS: 0.0084 m2 (small)
Launch date: May 10, 1999
Source: People's Republic of China (PRC)
Launch site: Taiyaun Space Center, China (TSC)

Note: This is SATELLITE DEBRIS
aabbcc
Your satellite tracking list
Your tracking list is empty




NASA's NSSDC Master Catalog

Two Line Element Set (TLE):
1 38135U 99025EQG 18107.27735825  .00000267  00000-0  11520-3 0  9998
2 38135  98.9986 125.3907 0238120 192.6759 166.8362 14.18839149446243
Source of the keplerian elements: AFSPC